Find KUIPER-00448

NORAD ID: 68871 Int'l Des: 2026-095H Owner: kuiper Country: USA Constellation: kuiper operational
LEOCIRCULAR

Live Position

Loading 3D Globe...

About KUIPER-00448

Description loading...

Upcoming Passes

Passes for default location (London). Set your location on the main map for personalized predictions.

Altitude History

Loading altitude history...

Two-Line Element Set

1 68871U 26095H 26120.66670139 -.00010495 00000-0 -26874-3 0 9992
2 68871 51.8823 112.1441 0003531 101.8919 79.0619 15.37724362 1300
Epoch: Apr 30, 2026 • Age: 31 hours

Current Status

Altitude 455.7 km
Velocity 7.65 km/s
Sub-Earth Point 45.06°N, 42.81°W
Type internet

Most Searched